EN

Hourly Weather Abay

Today, 4 December, Friday

Time Temperature Precipitation Wind Pressure Humidity
00:00 -16°C° 0 mm 0 mps 674 mmHg 63%
01:00 -16°C° 0 mm 0 mps 674 mmHg 63%
02:00 -16°C° 0 mm 0 mps 673 mmHg 63%
03:00 -16°C° 0 mm 0 mps 673 mmHg 63%
04:00 -16°C° 0 mm 0 mps 673 mmHg 63%
05:00 -17°C° 0 mm 0 mps 673 mmHg 63%
06:00 -17°C° 0 mm 0 mps 673 mmHg 60%
07:00 -16°C° 0 mm 0 mps 673 mmHg 61%
08:00 -16°C° 0 mm 0 mps 672 mmHg 61%
09:00 -16°C° 0 mm 0 mps 672 mmHg 61%
10:00 -14°C° 0 mm 0 mps 672 mmHg 62%
11:00 -12°C° 0 mm 0 mps 673 mmHg 62%
12:00 -9°C° 0 mm 0 mps 673 mmHg 62%
13:00 -10°C° 0 mm 0 mps 673 mmHg 66%
14:00 -10°C° 0 mm 0 mps 673 mmHg 70%
15:00 -11°C° 0 mm 0 mps 673 mmHg 75%
16:00 -12°C° 0 mm 0 mps 673 mmHg 74%
17:00 -14°C° 0 mm 0 mps 672 mmHg 73%
18:00 -16°C° 0 mm 0 mps 673 mmHg 71%
19:00 -16°C° 0 mm 0 mps 672 mmHg 71%
20:00 -16°C° 0 mm 0 mps 672 mmHg 71%
21:00 -17°C° 0 mm 0 mps 672 mmHg 71%
22:00 -17°C° 0 mm 0 mps 672 mmHg 71%
23:00 -17°C° 0 mm 0 mps 672 mmHg 71%

Tomorrow, 5 December, Saturday

Time Temperature Precipitation Wind Pressure Humidity
00:00 -17°C° 0 mm 0 mps 672 mmHg 71%
01:00 -18°C° 0 mm 0 mps 672 mmHg 71%
02:00 -18°C° 0 mm 0 mps 672 mmHg 72%
03:00 -18°C° 0 mm 0 mps 672 mmHg 72%
04:00 -18°C° 0 mm 0 mps 673 mmHg 72%
05:00 -18°C° 0 mm 0 mps 673 mmHg 72%
06:00 -19°C° 0 mm 0 mps 673 mmHg 72%
07:00 -18°C° 0 mm 0 mps 673 mmHg 72%
08:00 -18°C° 0 mm 0 mps 674 mmHg 72%
09:00 -17°C° 0 mm 0 mps 674 mmHg 72%
10:00 -15°C° 0 mm 0 mps 674 mmHg 72%
11:00 -13°C° 0 mm 0 mps 675 mmHg 71%
12:00 -11°C° 0 mm 0 mps 675 mmHg 71%
13:00 -12°C° 0 mm 0 mps 675 mmHg 74%
14:00 -12°C° 0 mm 0 mps 675 mmHg 78%
15:00 -12°C° 0 mm 0 mps 675 mmHg 81%
16:00 -13°C° 0 mm 0 mps 675 mmHg 80%
17:00 -15°C° 0 mm 0 mps 675 mmHg 79%
18:00 -16°C° 0 mm 0 mps 675 mmHg 78%
19:00 -17°C° 0 mm 0 mps 675 mmHg 78%
20:00 -17°C° 0 mm 0 mps 675 mmHg 77%
21:00 -17°C° 0 mm 0 mps 675 mmHg 76%
22:00 -17°C° 0 mm 0 mps 675 mmHg 76%
23:00 -17°C° 0 mm 0 mps 675 mmHg 76%

Day after tomorrow, 6 December, Sunday

Time Temperature Precipitation Wind Pressure Humidity
00:00 -17°C° 0 mm 0 mps 676 mmHg 76%
01:00 -18°C° 0 mm 0 mps 676 mmHg 75%
02:00 -18°C° 0 mm 0 mps 676 mmHg 75%
03:00 -18°C° 0 mm 0 mps 676 mmHg 75%
04:00 -18°C° 0 mm 0 mps 676 mmHg 75%
05:00 -18°C° 0 mm 0 mps 676 mmHg 75%
06:00 -18°C° 0 mm 0 mps 676 mmHg 75%
07:00 -18°C° 0 mm 0 mps 676 mmHg 74%
08:00 -17°C° 0 mm 0 mps 677 mmHg 74%
09:00 -17°C° 0 mm 0 mps 677 mmHg 73%
10:00 -15°C° 0 mm 0 mps 677 mmHg 73%
11:00 -13°C° 0 mm 0 mps 678 mmHg 72%
12:00 -11°C° 0 mm 0 mps 678 mmHg 72%
13:00 -11°C° 0 mm 0 mps 678 mmHg 74%
14:00 -12°C° 0 mm 0 mps 678 mmHg 77%
15:00 -12°C° 0 mm 0 mps 678 mmHg 80%
16:00 -13°C° 0 mm 0 mps 677 mmHg 78%
17:00 -14°C° 0 mm 0 mps 677 mmHg 76%
18:00 -16°C° 0 mm 0 mps 677 mmHg 75%
19:00 -16°C° 0 mm 0 mps 677 mmHg 74%
20:00 -16°C° 0 mm 0 mps 677 mmHg 73%
21:00 -16°C° 0 mm 0 mps 677 mmHg 72%
22:00 -17°C° 0 mm 0 mps 677 mmHg 71%
23:00 -17°C° 0 mm 0 mps 676 mmHg 71%

7 December, Monday

Time Temperature Precipitation Wind Pressure Humidity
00:00 -17°C° 0 mm 0 mps 676 mmHg 71%
01:00 -17°C° 0 mm 0 mps 676 mmHg 71%
02:00 -17°C° 0 mm 0 mps 676 mmHg 71%
03:00 -17°C° 0 mm 0 mps 676 mmHg 71%
04:00 -17°C° 0 mm 0 mps 676 mmHg 71%
05:00 -17°C° 0 mm 0 mps 675 mmHg 71%
06:00 -17°C° 0 mm 0 mps 675 mmHg 71%
07:00 -17°C° 0 mm 0 mps 675 mmHg 71%
08:00 -17°C° 0 mm 0 mps 675 mmHg 71%
09:00 -16°C° 0 mm 0 mps 675 mmHg 71%
10:00 -14°C° 0 mm 0 mps 675 mmHg 70%
11:00 -12°C° 0 mm 0 mps 674 mmHg 70%
12:00 -11°C° 0 mm 0 mps 674 mmHg 69%
13:00 -11°C° 0 mm 0 mps 674 mmHg 72%
14:00 -11°C° 0 mm 0 mps 674 mmHg 75%
15:00 -11°C° 0 mm 0 mps 673 mmHg 78%
16:00 -12°C° 0 mm 0 mps 673 mmHg 77%
17:00 -13°C° 0 mm 0 mps 672 mmHg 75%
18:00 -15°C° 0 mm 0 mps 672 mmHg 73%
19:00 -14°C° 0 mm 0 mps 672 mmHg 74%
20:00 -14°C° 0 mm 1 mps 672 mmHg 74%
21:00 -14°C° 0 mm 1 mps 672 mmHg 75%
22:00 -14°C° 0 mm 1 mps 672 mmHg 75%
23:00 -14°C° 0 mm 1 mps 672 mmHg 76%

8 December, Tuesday

Time Temperature Precipitation Wind Pressure Humidity
00:00 -14°C° 0 mm 1 mps 672 mmHg 77%
01:00 -14°C° 0 mm 1 mps 671 mmHg 76%
02:00 -14°C° 0 mm 1 mps 671 mmHg 76%
03:00 -14°C° 0 mm 1 mps 671 mmHg 76%
04:00 -14°C° 0 mm 1 mps 671 mmHg 76%
05:00 -14°C° 0 mm 1 mps 671 mmHg 76%
06:00 -14°C° 0 mm 1 mps 670 mmHg 76%
07:00 -14°C° 0 mm 1 mps 671 mmHg 77%
08:00 -13°C° 0 mm 1 mps 671 mmHg 77%
09:00 -15°C° 0 mm 2 mps 671 mmHg 78%
10:00 -14°C° 0 mm 2 mps 670 mmHg 77%
11:00 -12°C° 0 mm 2 mps 670 mmHg 76%
12:00 -10°C° 0 mm 2 mps 670 mmHg 75%
13:00 -12°C° 0 mm 3 mps 670 mmHg 77%
14:00 -12°C° 0 mm 3 mps 670 mmHg 80%
15:00 -12°C° 0 mm 3 mps 670 mmHg 82%
16:00 -13°C° 0 mm 3 mps 670 mmHg 85%
17:00 -14°C° 0 mm 3 mps 670 mmHg 88%
18:00 -15°C° 0 mm 3 mps 670 mmHg 91%
19:00 -15°C° 0 mm 3 mps 670 mmHg 92%
20:00 -16°C° 0 mm 3 mps 670 mmHg 92%
21:00 -16°C° 0 mm 3 mps 670 mmHg 93%
22:00 -16°C° 0 mm 2 mps 670 mmHg 93%
23:00 -16°C° 0 mm 2 mps 670 mmHg 94%

9 December, Wednesday

Time Temperature Precipitation Wind Pressure Humidity
00:00 -17°C° 0 mm 2 mps 670 mmHg 94%
01:00 -17°C° 0 mm 2 mps 671 mmHg 94%
02:00 -18°C° 0 mm 2 mps 671 mmHg 94%
03:00 -18°C° 0 mm 2 mps 672 mmHg 95%
04:00 -19°C° 0 mm 2 mps 672 mmHg 95%
05:00 -20°C° 0 mm 2 mps 673 mmHg 95%
06:00 -21°C° 0 mm 2 mps 673 mmHg 95%
07:00 -21°C° 0 mm 2 mps 674 mmHg 95%
08:00 -20°C° 0 mm 1 mps 675 mmHg 94%
09:00 -20°C° 0 mm 1 mps 675 mmHg 94%
10:00 -18°C° 0 mm 1 mps 676 mmHg 91%
11:00 -17°C° 0 mm 1 mps 677 mmHg 88%
12:00 -15°C° 0 mm 1 mps 677 mmHg 85%
13:00 -16°C° 0 mm 1 mps 677 mmHg 86%
14:00 -16°C° 0 mm 1 mps 677 mmHg 88%
15:00 -16°C° 0 mm 1 mps 677 mmHg 90%
16:00 -17°C° 0 mm 1 mps 677 mmHg 90%
17:00 -18°C° 0 mm 1 mps 677 mmHg 91%
18:00 -19°C° 0 mm 1 mps 677 mmHg 92%
19:00 -18°C° 0 mm 1 mps 677 mmHg 91%
20:00 -18°C° 0 mm 1 mps 677 mmHg 90%
21:00 -18°C° 0 mm 1 mps 677 mmHg 90%
22:00 -18°C° 0 mm 1 mps 676 mmHg 89%
23:00 -18°C° 0 mm 1 mps 676 mmHg 87%
Show more